* Astronomy

Members Login
Post Info TOPIC: Kosmos-2461


L

Posts: 131433
Date:
Kosmos-2462 Re-entry
Permalink  
 


TLE Data
KOSMOS 2462
1 36511U 10014A 10159.50438377 .00407214 57544-5 18368-3 0 2030
2 36511 067.1529 238.4307 0107265 114.5797 317.9481 16.09308688 8493


__________________


L

Posts: 131433
Date:
Permalink  
 

The Russian Kosmos-2462 satellite is predicted to re-enter the Earths atmosphere on the 8th June, 2010 @ --:-- GMT ±-- hours.

TLE Data
KOSMOS 2462
1 36511U 10014A 10158.82680675 .00381313 57483-5 18368-3 0 2004
2 36511 067.1536 240.7198 0106126 116.0045 352.4618 16.08814454 8389

Period:                     89.53 minutes
Inclination:               67.15°
Apogee:                   322 km
Perigee:                   180 km
Revolution Number:    -
Size:                        8.8 metres
Predicted  Location:    -

__________________


L

Posts: 131433
Date:
Soyuz-U SL-4 Rocket Body Re-entry
Permalink  
 


Update
The Russian Soyuz SL-4 Rocket Body re-entered the Earths atmosphere on the 21st April, 2010 @ 13:42 GMT ±1 minute.

Inclination:               67.16°
Revolution Number:    81
Predicted  Location:    28° N, 150° E

__________________


L

Posts: 131433
Date:
RE: Kosmos-2461
Permalink  
 


Update
The Russian Soyuz SL-4 Rocket Body is predicted to re-enter the Earths atmosphere on the 21st April, 2010 @ 15:13 GMT ±16 hours.

Period:                     88.8 minutes
Inclination:               67.16°
Apogee:                   269 km
Perigee:                   161 km
Revolution Number:    82
Size:                        - metres
Predicted  Location:    33.1° N, 126.5° E

__________________


L

Posts: 131433
Date:
Soyuz-U SL-4 Rocket Body Re-entry
Permalink  
 


Update
The Russian Soyuz SL-4 Rocket Body is predicted to re-enter the Earths atmosphere on the 21st April, 2010 @ 17:15 GMT ±24 hours.

Period:                     89.07 minutes
Inclination:               67.16°
Apogee:                   293 km
Perigee:                   164 km
Revolution Number:    83
Size:                        - metres
Predicted  Location:    64.5° S, 229.8° E

__________________


L

Posts: 131433
Date:
RE: Kosmos-2462
Permalink  
 


TLE Data
COSMOS 2462
1 36511U 10014A 10109.36841503 -.00001785 56435-5 00000+0 0 162
2 36511 067.1646 047.1359 0142167 072.4749 038.5793 16.00988555 441


Period:                     89.39 minutes
Inclination:               67.16°
Apogee:                   321 km
Perigee:                   169 km



__________________


L

Posts: 131433
Date:
Soyuz-U SL-4 Rocket Body Re-entry
Permalink  
 


Update
The Russian Soyuz SL-4 Rocket Body is predicted to re-enter the Earths atmosphere on the 21st April, 2010 @ 18:17 GMT ±48 hours.

Period:                     89.26 minutes
Inclination:               67.17°
Apogee:                   308 km
Perigee:                   168 km
Revolution Number:    84
Size:                        - metres
Predicted  Location:    3.4° N, 94.3° E

__________________


L

Posts: 131433
Date:
Permalink  
 

A Russian Soyuz SL-4 Rocket Body that was launched on the 16th April, 2010, from the Plesetsk launch complex for the KOSMOS 2462 mission is
predicted to re-enter the Earths atmosphere on the 21st April, 2010 @ 23:51 GMT  ±48 hours.

TLE Data
SL-4 RB
1 36512U 10014B 10108.10353004 .01640282 58502-5 45676-3 0 89
2 36512 067.1639 051.4485 0098434 087.4030 273.7871 16.15804572 248

Period:                     -  minutes
Inclination:               67.2°
Apogee:                   - km
Perigee:                   - km
Revolution Number:    88
Size:                        - metres
Predicted  Location:    66.1° N, 299.4° E

__________________


L

Posts: 131433
Date:
Kosmos-2462
Permalink  
 


The spy satellite has received the designation Kosmos-2462

__________________


L

Posts: 131433
Date:
RE: Kosmos-2461
Permalink  
 


TLE Data
COSMOS 2462
1 36511U 10014A 10107.19770003 -.00001821 57587-5 00000+0 0 33
2 36511 067.1648 054.4913 0118836 090.5591 042.4994 16.09619046 95


__________________
1 2  >  Last»  | Page of 2  sorted by
Quick Reply

Please log in to post quick replies.



Create your own FREE Forum
Report Abuse
Powered by ActiveBoard